This is the latest recevied weather packets stored in our database for station/object YO8CLN-10. If no packets are shown the sender has not sent any weather packets the latest 10 day(s).
| Time | Temp. | Humidity | Pressure | Rain* | Wind** | Luminosity | Snow |
|---|---|---|---|---|---|---|---|
| 1787837836 | 15° C | 85% | 1111 hPa | 0 mm | - | - | - |
| 1787832431 | 13.33° C | 85% | 1111 hPa | 0 mm | - | - | - |
| 1787830391 | 14.44° C | 84% | 1111 hPa | 0 mm | - | - | - |
| 1787830029 | 15° C | 84% | 1111 hPa | 0 mm | - | - | - |
| 1787829428 | 15° C | 86% | 1111 hPa | 0 mm | - | - | - |
| 1787829249 | 15° C | 87% | 1111 hPa | 0 mm | - | - | - |
| 1787828108 | 13.89° C | 87% | 1111 hPa | 0 mm | - | - | - |
| 1787827026 | 12.78° C | 86% | 1111 hPa | 0 mm | - | - | - |
| 1787826967 | 12.78° C | 86% | 1111 hPa | 0 mm | - | - | - |
| 1787823545 | 13.89° C | 82% | 1111 hPa | 0 mm | - | - | - |
| 1787823422 | 13.89° C | 82% | 1111 hPa | 0 mm | - | - | - |
| 1787822402 | 14.44° C | 79% | 1111 hPa | 0 mm | - | - | - |
| 1787821621 | 15.56° C | 77% | 1111 hPa | 0 mm | - | - | - |
| 1787821263 | 15.56° C | 76% | 1111 hPa | 0 mm | - | - | - |
| 1787821020 | 16.11° C | 76% | 1111 hPa | 0 mm | - | - | - |
| 1787820121 | 16.67° C | 77% | 1111 hPa | 0 mm | - | - | - |
| 1787819819 | 16.67° C | 78% | 1111 hPa | 0 mm | - | - | - |
| 1787819218 | 16.67° C | 80% | 1111 hPa | 0 mm | - | - | - |
| 1787818982 | 16.11° C | 79% | 1111 hPa | 0 mm | - | - | - |
| 1787818618 | 16.11° C | 81% | 1111 hPa | 0 mm | - | - | - |
| 1787818017 | 15.56° C | 82% | 1111 hPa | 0 mm | - | - | - |
| 1787817838 | 15.56° C | 82% | 1111 hPa | 0 mm | - | - | - |
| 1787817416 | 15° C | 82% | 1111 hPa | 0 mm | - | - | - |
| 1787816816 | 15° C | 82% | 1111 hPa | 0 mm | - | - | - |
| 1787816698 | 15° C | 82% | 1111 hPa | 0 mm | - | - | - |
* Rain latest hour (hover to see other rain measurements)
** Current wind speed in m/s (hover to see current wind gust speed)